Air Resources Laboratory banner image
Air Resources Laboratory web site National Oceanic and Atmospheric Administration (NOAA)

mi roundup


Office: DTX

ASUS43 KDTX 141101
RWRMI
MICHIGAN HOURLY REGIONAL WEATHER ROUNDUP
NATIONAL WEATHER SERVICE DETROIT/PONTIAC MI
700 AM EDT TUE AUG 14 2018

NOTE: "FAIR" INDICATES FEW OR NO CLOUDS BELOW 12,000 FEET WITH NO
SIGNIFICANT WEATHER AND/OR OBSTRUCTION TO VISIBILITY.

MIZ047>049-052>055-059>063-066>070-074>076-081>083-141200-
SOUTHEAST LOWER MICHIGAN

CITY           SKY/WX    TMP DP  RH WIND       PRES   REMARKS
ADRIAN         FAIR      62  60  93 CALM      30.01S
ALMA           FOG       56  56 100 CALM      29.99R VSB 1/2
ANN ARBOR      FOG       59  59 100 CALM      29.99S VSB<1/4
BAD AXE        FAIR      57  56  95 CALM      29.96S
CARO           FAIR      58  57  94 CALM      29.97S FOG
DETROIT CITY   FAIR      67  62  84 CALM      29.98R
DETROIT        MOCLDY    67  61  81 SW5       29.99R HAZE
FLINT          FAIR      62  60  93 CALM      29.99R
GROSSE ILE     FAIR      67  63  86 CALM      29.98R
HILLSDALE      CLOUDY    59  57  94 CALM      30.01S FOG
HOWELL         FAIR      62  60  94 CALM      30.00S

CITY           SKY/WX    TMP DP  RH WIND       PRES   REMARKS
JACKSON        FAIR      61  61 100 SW3       30.00S
LAMBERTVILLE   FOG       63  61  91 CALM      29.99S VSB 3/4
LANSING        FAIR      62  61  96 CALM      30.00S
LAPEER         FAIR      58  58 100 CALM      29.99R
MASON          FAIR      63  60  90 CALM      30.00S FOG
PONTIAC        FAIR      66  64  93 W5        29.98R
PORT HOPE        N/A     67  63  87 SW5       29.94S
PORT HURON     FOG       57  55  94 CALM      29.98R VSB 1/2
TRI CITIES     FAIR      64  62  93 SW5       29.98R
MIDLAND        FOG       58  58 100 CALM      29.97S VSB<1/4
TROY           FAIR      69  63  82 CALM      30.00S
SAGINAW HB     FAIR      61  59  94 CALM      29.97R
$$
MIZ043>046-050>051-056>058-064>065-071>073-077>080-141200-
SOUTHWEST LOWER MICHIGAN

CITY           SKY/WX    TMP DP  RH WIND       PRES   REMARKS
BATTLE CREEK   FAIR      61  59  93 S3        30.01S
BENTON HARBOR  MOCLDY    63  61  93 CALM      29.99S FOG
BIG RAPIDS     FAIR      58  56  93 CALM      29.98S
COLDWATER      FOG       61  61 100 CALM      30.01S VSB<1/4
FREMONT        FOG       63  63 100 CALM      29.98S VSB<1/4
HOLLAND        FAIR      63  62  97 CALM      29.99R
GRAND RAPIDS   FAIR      61  59  93 S3        29.99S
IONIA          FAIR      62  61  97 CALM      29.99S FOG
KALAMAZOO      MOCLDY    61  60  97 CALM      30.00S FOG
LUDINGTON      FAIR      60  60  97 CALM      29.95S FOG
MARSHALL       FOG       58  56  94 CALM      30.00S VSB<1/4
MOUNT PLEASANT FOG       60  59  96 CALM      29.98R VSB 1/2
MUSKEGON       FAIR      64  62  93 CALM      29.98R
SOUTH HAVEN    FAIR      63  62  95 CALM      29.99S FOG
$$
MIZ016>042-141200-
NORTHERN LOWER MICHIGAN

CITY           SKY/WX    TMP DP  RH WIND       PRES   REMARKS
ALPENA         FAIR      58  58 100 CALM      29.95S
BEAVER ISLAND  FAIR      71  69  93 SW5       29.92S
BELLAIRE       FAIR      55  54  97 CALM      29.95R FOG
CADILLAC       FAIR      56  54  94 CALM      29.98S
CHARLEVOIX     FAIR      64  64 100 CALM      29.96S
GAYLORD        FAIR      60  58  92 SW3       29.97S
GRAYLING       FAIR      52  50  93 CALM      29.96S FOG
HARBOR SPRINGS FAIR      63  62  97 W3        29.94R
HOUGHTON LAKE  FAIR      53  52  96 CALM      29.99R
MANISTEE       FAIR      57  57 100 E3        29.96R FOG
OSCODA         FAIR      61  61 100 W3        29.95R
PELLSTON       FAIR      57  55  93 CALM      29.93R
ROGERS CITY    FAIR      66  57  73 SW7       29.93S
TRAVERSE CITY  FAIR      68  64  87 CALM      29.93S
$$
MIZ007>008-015-141200-
EASTERN UPPER MICHIGAN

CITY           SKY/WX    TMP DP  RH WIND       PRES   REMARKS
KINROSS        FAIR      65  65 100 SW6       29.91R FOG
MACKINAC ISLAN FAIR      69  65  87 SW6       29.91S
NEWBERRY       FAIR      66  65  97 SW8       29.90S FOG
S. S. MARIE    FAIR      62  61  96 E3        29.90R FOG
MUNISING         N/A     68  62  81 SE6       29.87F
$$
MIZ004>006-011>014-085-141200-
CENTRAL UPPER MICHIGAN

CITY           SKY/WX    TMP DP  RH WIND       PRES   REMARKS
MANISTIQUE     FAIR      69  67  94 W5        29.90S
ESCANABA       FAIR      64  63  96 W6        29.91S
MENOMINEE      FAIR      65  63  93 VRB3      29.94S FOG
SAWYER-GWINN   PTCLDY    63  61  94 S5        29.92S
$$
MIZ001>003-009>011-084-141200-
WESTERN UPPER MICHIGAN

CITY           SKY/WX    TMP DP  RH WIND       PRES   REMARKS
IRON MOUNTAIN  FAIR      67  62  84 VRB3      29.92S
HOUGHTON       FAIR      75  64  68 W20       29.87R
COPPER HARBOR    N/A     76  65  68 NW9G17    29.83R
IRONWOOD       FAIR      69  64  84 SW5       29.94R
$$

ABBREVIATIONS USED IN REMARKS
   TC - TEMPERATURE IN CELSIUS
  WCI - WIND CHILL INDEX
   HX - HEAT INDEX
  VSB - VISIBILITY



ASUS43 KDTX 141110
RWRMI
MICHIGAN HOURLY REGIONAL WEATHER ROUNDUP
NATIONAL WEATHER SERVICE DETROIT/PONTIAC MI
ISSUED BY NATIONAL WEATHER SERVICE GRAND RAPIDS MI
700 AM EDT TUE AUG 14 2018

NOTE: "FAIR" INDICATES FEW OR NO CLOUDS BELOW 12,000 FEET WITH NO
SIGNIFICANT WEATHER AND/OR OBSTRUCTION TO VISIBILITY.

MIZ047>049-052>055-059>063-066>070-074>076-081>083-141200-
SOUTHEAST LOWER MICHIGAN

CITY           SKY/WX    TMP DP  RH WIND       PRES   REMARKS
ADRIAN         FAIR      62  60  93 CALM      30.01S
ALMA           FOG       56  56 100 CALM      29.99R VSB 1/2
ANN ARBOR      FOG       59  59 100 CALM      29.99S VSB<1/4
BAD AXE        FAIR      57  56  95 CALM      29.96S
DETROIT CITY   FAIR      67  62  84 CALM      29.98R
DETROIT        MOCLDY    67  61  81 SW5       29.99R HAZE
FLINT          FAIR      62  60  93 CALM      29.99R
GROSSE ILE     FAIR      67  63  86 CALM      29.98R
HILLSDALE      CLOUDY    59  57  94 CALM      30.01S FOG
HOWELL         FAIR      62  60  94 CALM      30.00S

CITY           SKY/WX    TMP DP  RH WIND       PRES   REMARKS
JACKSON        FAIR      61  61 100 SW3       30.00S
LANSING        FAIR      62  61  96 CALM      30.00S
MASON          FAIR      63  60  90 CALM      30.00S FOG
MONROE         FAIR      61  59  94 CALM      29.99R FOG
PONTIAC        FAIR      66  64  93 W5        29.98R
PORT HOPE        N/A     67  63  87 SW5       29.94S
PORT HURON     FOG       57  55  94 CALM      29.98R VSB 1/2
TRI CITIES     FAIR      64  62  93 SW5       29.98R
YPSILANTI      FAIR      65  62  90 CALM      29.99S
$$
MIZ043>046-050>051-056>058-064>065-071>073-077>080-141200-
SOUTHWEST LOWER MICHIGAN

CITY           SKY/WX    TMP DP  RH WIND       PRES   REMARKS
BATTLE CREEK   FAIR      61  59  93 S3        30.01S
BENTON HARBOR  MOCLDY    63  61  93 CALM      29.99S FOG
BIG RAPIDS     FAIR      58  56  93 CALM      29.98S
COLDWATER      FOG       61  61 100 CALM      30.01S VSB<1/4
HOLLAND        FAIR      63  62  97 CALM      29.99R
GRAND RAPIDS   FAIR      61  59  93 S3        29.99S
KALAMAZOO      MOCLDY    61  60  97 CALM      30.00S FOG
MARSHALL       FOG       58  56  94 CALM      30.00S VSB<1/4
MOUNT PLEASANT FOG       60  59  96 CALM      29.98R VSB 1/2
MUSKEGON       FAIR      64  62  93 CALM      29.98R
STURGIS        FOG       63  60  90 CALM      30.01R VSB<1/4
$$
MIZ016>042-141200-
NORTHERN LOWER MICHIGAN

CITY           SKY/WX    TMP DP  RH WIND       PRES   REMARKS
ALPENA         FAIR      58  58 100 CALM      29.95S
BEAVER ISLAND  FAIR      71  69  93 SW5       29.92S
BELLAIRE       FAIR      55  54  97 CALM      29.95R FOG
CADILLAC       FAIR      56  54  94 CALM      29.98S
CHARLEVOIX     FAIR      64  64 100 CALM      29.96S
GAYLORD        FAIR      60  58  92 SW3       29.97S
HOUGHTON LAKE  FAIR      53  52  96 CALM      29.99R
MANISTEE       FAIR      57  57 100 E3        29.96R FOG
OSCODA         FAIR      61  61 100 W3        29.95R
PELLSTON       FAIR      57  55  93 CALM      29.93R
TRAVERSE CITY  FAIR      68  64  87 CALM      29.93S
LUDINGTON      FAIR      60  60  97 CALM      29.95S FOG
$$
MIZ007>008-015-141200-
EASTERN UPPER MICHIGAN

CITY           SKY/WX    TMP DP  RH WIND       PRES   REMARKS
KINROSS        FAIR      66  64  94 SW5       29.91R FOG
MACKINAC ISLAN FAIR      69  65  87 SW6       29.91S
NEWBERRY       FAIR      66  65  97 SW8       29.90S FOG
S. S. MARIE    FAIR      62  61  96 E3        29.90R FOG
$$
MIZ004>006-011>014-085-141200-
CENTRAL UPPER MICHIGAN

CITY           SKY/WX    TMP DP  RH WIND       PRES   REMARKS
MANISTIQUE     FAIR      69  67  94 W5        29.90S
ESCANABA       FAIR      64  63  96 W6        29.91S
MENOMINEE      FAIR      65  63  93 VRB3      29.94S FOG
SAWYER-GWINN   PTCLDY    63  61  94 S5        29.92S
$$
MIZ001>003-009>011-084-141200-
WESTERN UPPER MICHIGAN

CITY           SKY/WX    TMP DP  RH WIND       PRES   REMARKS
IRON MOUNTAIN  FAIR      67  62  84 VRB3      29.92S
HOUGHTON       FAIR      75  64  68 W20       29.87R
COPPER HARBOR    N/A     76  65  68 NW9G17    29.83R
IRONWOOD       FAIR      69  64  84 SW5       29.94R
$$

ABBREVIATIONS USED IN REMARKS
   TC - TEMPERATURE IN CELSIUS
  WCI - WIND CHILL INDEX
   HX - HEAT INDEX
  VSB - VISIBILITY



ASUS43 KDTX 141110
RWRMI
MICHIGAN HOURLY REGIONAL WEATHER ROUNDUP
NATIONAL WEATHER SERVICE DETROIT/PONTIAC MI
700 AM EDT TUE AUG 14 2018

NOTE: "FAIR" INDICATES FEW OR NO CLOUDS BELOW 12,000 FEET WITH NO
SIGNIFICANT WEATHER AND/OR OBSTRUCTION TO VISIBILITY.

MIZ047>049-052>055-059>063-066>070-074>076-081>083-141200-
SOUTHEAST LOWER MICHIGAN

CITY           SKY/WX    TMP DP  RH WIND       PRES   REMARKS
ADRIAN         FAIR      62  60  93 CALM      30.01S
ALMA           FOG       56  56 100 CALM      29.99R VSB 1/2
ANN ARBOR      FOG       59  59 100 CALM      29.99S VSB<1/4
BAD AXE        FAIR      57  56  95 CALM      29.96S
CARO           FAIR      58  57  94 CALM      29.97S FOG
DETROIT CITY   FAIR      67  62  84 CALM      29.98R
DETROIT        MOCLDY    67  61  81 SW5       29.99R HAZE
FLINT          FAIR      62  60  93 CALM      29.99R
GROSSE ILE     FAIR      67  63  86 CALM      29.98R
HILLSDALE      CLOUDY    59  57  94 CALM      30.01S FOG
HOWELL         FAIR      62  60  94 CALM      30.00S

CITY           SKY/WX    TMP DP  RH WIND       PRES   REMARKS
JACKSON        FAIR      61  61 100 SW3       30.00S
LAMBERTVILLE   FOG       63  61  91 CALM      29.99S VSB 3/4
LANSING        FAIR      62  61  96 CALM      30.00S
LAPEER         FAIR      58  58 100 CALM      29.99R
MASON          FAIR      63  60  90 CALM      30.00S FOG
MONROE         FAIR      61  59  94 CALM      29.99R FOG
PONTIAC        FAIR      66  64  93 W5        29.98R
PORT HOPE        N/A     67  63  87 SW5       29.94S
PORT HURON     FOG       57  55  94 CALM      29.98R VSB 1/2
TRI CITIES     FAIR      64  62  93 SW5       29.98R
MIDLAND        FOG       58  58 100 CALM      29.97S VSB<1/4
TROY           FAIR      69  63  82 CALM      30.00S
SAGINAW HB     FAIR      61  59  94 CALM      29.97R
$$
MIZ043>046-050>051-056>058-064>065-071>073-077>080-141200-
SOUTHWEST LOWER MICHIGAN

CITY           SKY/WX    TMP DP  RH WIND       PRES   REMARKS
BATTLE CREEK   FAIR      61  59  93 S3        30.01S
BENTON HARBOR  MOCLDY    63  61  93 CALM      29.99S FOG
BIG RAPIDS     FAIR      58  56  93 CALM      29.98S
COLDWATER      FOG       61  61 100 CALM      30.01S VSB<1/4
FREMONT        FOG       63  63 100 CALM      29.98S VSB<1/4
HOLLAND        FAIR      63  62  97 CALM      29.99R
GRAND RAPIDS   FAIR      61  59  93 S3        29.99S
IONIA          FAIR      62  61  97 CALM      29.99S FOG
KALAMAZOO      MOCLDY    61  60  97 CALM      30.00S FOG
LUDINGTON      FAIR      60  60  97 CALM      29.95S FOG
MARSHALL       FOG       58  56  94 CALM      30.00S VSB<1/4
MOUNT PLEASANT FOG       60  59  96 CALM      29.98R VSB 1/2
MUSKEGON       FAIR      64  62  93 CALM      29.98R
SOUTH HAVEN    FAIR      63  62  95 CALM      29.99S FOG
$$
MIZ016>042-141200-
NORTHERN LOWER MICHIGAN

CITY           SKY/WX    TMP DP  RH WIND       PRES   REMARKS
ALPENA         FAIR      58  58 100 CALM      29.95S
BEAVER ISLAND  FAIR      71  69  93 SW5       29.92S
BELLAIRE       FAIR      55  54  97 CALM      29.95R FOG
CADILLAC       FAIR      56  54  94 CALM      29.98S
CHARLEVOIX     FAIR      64  64 100 CALM      29.96S
GAYLORD        FAIR      60  58  92 SW3       29.97S
GRAYLING       FAIR      52  50  93 CALM      29.96S FOG
HARBOR SPRINGS FAIR      63  62  97 W3        29.94R
HOUGHTON LAKE  FAIR      53  52  96 CALM      29.99R
MANISTEE       FAIR      57  57 100 E3        29.96R FOG
OSCODA         FAIR      61  61 100 W3        29.95R
PELLSTON       FAIR      57  55  93 CALM      29.93R
ROGERS CITY    FAIR      66  57  73 SW7       29.93S
TRAVERSE CITY  FAIR      68  64  87 CALM      29.93S
$$
MIZ007>008-015-141200-
EASTERN UPPER MICHIGAN

CITY           SKY/WX    TMP DP  RH WIND       PRES   REMARKS
KINROSS        FAIR      66  64  94 SW5       29.91R FOG
MACKINAC ISLAN FAIR      69  65  87 SW6       29.91S
NEWBERRY       FAIR      66  65  97 SW8       29.90S FOG
S. S. MARIE    FAIR      62  61  96 E3        29.90R FOG
MUNISING         N/A     68  62  81 SE6       29.87F
$$
MIZ004>006-011>014-085-141200-
CENTRAL UPPER MICHIGAN

CITY           SKY/WX    TMP DP  RH WIND       PRES   REMARKS
MANISTIQUE     FAIR      69  67  94 W5        29.90S
ESCANABA       FAIR      64  63  96 W6        29.91S
MENOMINEE      FAIR      65  63  93 VRB3      29.94S FOG
SAWYER-GWINN   PTCLDY    63  61  94 S5        29.92S
$$
MIZ001>003-009>011-084-141200-
WESTERN UPPER MICHIGAN

CITY           SKY/WX    TMP DP  RH WIND       PRES   REMARKS
IRON MOUNTAIN  FAIR      67  62  84 VRB3      29.92S
HOUGHTON       FAIR      75  64  68 W20       29.87R
COPPER HARBOR    N/A     76  65  68 NW9G17    29.83R
IRONWOOD       FAIR      69  64  84 SW5       29.94R
$$

ABBREVIATIONS USED IN REMARKS
   TC - TEMPERATURE IN CELSIUS
  WCI - WIND CHILL INDEX
   HX - HEAT INDEX
  VSB - VISIBILITY